This is the latest recevied weather packets stored in our database for station/object KN6ZYR. If no packets are shown the sender has not sent any weather packets the latest 10 day(s).
| Time | Temp. | Humidity | Pressure | Rain* | Wind** | Luminosity | Snow |
|---|---|---|---|---|---|---|---|
| 1777988378 | 7.22° C | 91% | 1015.5 hPa | 0 mm | - | 34 W/m² | - |
| 1777988076 | 7.22° C | 91% | 1015.5 hPa | 0 mm | - | 27 W/m² | - |
| 1777987771 | 7.22° C | 90% | 1015.4 hPa | 0 mm | - | 29 W/m² | - |
| 1777987468 | 7.22° C | 90% | 1015.5 hPa | 0 mm | - | 29 W/m² | - |
| 1777987166 | 7.22° C | 90% | 1015.5 hPa | 1.27 mm | - | 17 W/m² | - |
| 1777986863 | 7.22° C | 90% | 1015.1 hPa | 1.27 mm | - | 11 W/m² | - |
| 1777986561 | 7.22° C | 89% | 1015 hPa | 0 mm | - | 6 W/m² | - |
| 1777986258 | 7.22° C | 89% | 1015.4 hPa | 0 mm | - | 4 W/m² | - |
| 1777985956 | 7.22° C | 89% | 1015.3 hPa | 1.78 mm | - | 2 W/m² | - |
| 1777985653 | 7.22° C | 89% | 1015.1 hPa | 1.78 mm | - | 1 W/m² | - |
| 1777985349 | 7.22° C | 89% | 1015 hPa | 1.78 mm | - | 1 W/m² | - |
| 1777985046 | 7.22° C | 92% | 1015.1 hPa | 0 mm | - | 0 W/m² | - |
| 1777984743 | 7.22° C | 92% | 1015.4 hPa | 0 mm | - | 0 W/m² | - |
| 1777984439 | 7.22° C | 92% | 1015.1 hPa | 0 mm | - | 0 W/m² | - |
| 1777984135 | 7.22° C | 93% | 1015.1 hPa | 0 mm | - | 0 W/m² | - |
| 1777983832 | 7.22° C | 93% | 1015.3 hPa | 0 mm | - | 0 W/m² | - |
| 1777983529 | 7.22° C | 93% | 1015.1 hPa | 0 mm | - | 0 W/m² | - |
| 1777983226 | 7.22° C | 93% | 1015 hPa | 0 mm | - | 0 W/m² | - |
| 1777982922 | 6.67° C | 92% | 1015.1 hPa | 0 mm | - | 0 W/m² | - |
| 1777982618 | 7.22° C | 92% | 1014.9 hPa | 0 mm | - | 0 W/m² | - |
| 1777982317 | 6.67° C | 92% | 1014.9 hPa | 0 mm | - | 0 W/m² | - |
| 1777982014 | 7.22° C | 92% | 1015.1 hPa | 0 mm | - | 0 W/m² | - |
| 1777981712 | 6.67° C | 92% | 1015.4 hPa | 0 mm | - | 0 W/m² | - |
| 1777981408 | 7.22° C | 92% | 1015.3 hPa | 0 mm | - | 0 W/m² | - |
| 1777981105 | 7.22° C | 91% | 1015.1 hPa | 0 mm | - | 0 W/m² | - |
* Rain latest hour (hover to see other rain measurements)
** Current wind speed in m/s (hover to see current wind gust speed)